OK4PZ-5 Weather Reports


time (UTC)temp
C
wind
direction
speed
KPH
gust
KPH
rain 1hr
cm
rain 24hr
cm
rain mn
cm
humidity
%
barometer
mb
20260505124502 23 113 0.0 4.8 0.00 0.00 0.00 41 1008.0
20260505123002 23 326 1.6 1.6 0.00 0.00 0.00 41 1008.0
20260505121502 23 84 4.8 6.4 0.00 0.00 0.00 41 1009.0
20260505120003 24 60 3.2 12.9 0.00 0.00 0.00 40 1009.0
20260505114502 25 9 0.0 4.8 0.00 0.00 0.00 39 1009.0
20260505113002 25 112 6.4 17.7 0.00 0.00 0.00 38 1009.0
20260505111502 25 38 0.0 4.8 0.00 0.00 0.00 34 1009.0
20260505101503 24 259 3.2 6.4 0.00 0.00 0.00 35 1010.0
20260505100002 24 105 0.0 3.2 0.00 0.00 0.00 36 1009.0
20260505094502 25 139 3.2 4.8 0.00 0.00 0.00 35 1010.0
20260505093002 25 124 0.0 3.2 0.00 0.00 0.00 36 1010.0
20260505091502 23 242 1.6 3.2 0.00 0.00 0.00 38 1010.0
20260505090003 23 61 0.0 3.2 0.00 0.00 0.00 40 1010.0
20260505084502 22 56 3.2 6.4 0.00 0.00 0.00 42 1010.0
20260505083002 22 40 1.6 3.2 0.00 0.00 0.00 41 1010.0
20260505081502 21 193 0.0 1.6 0.00 0.00 0.00 44 1010.0
20260505080002 20 144 0.0 1.6 0.00 0.00 0.00 43 1010.0
20260505074501 19 140 4.8 6.4 0.00 0.00 0.00 47 1011.0
20260505073003 20 9 1.6 3.2 0.00 0.00 0.00 46 1011.0
20260505071501 18 145 4.8 4.8 0.00 0.00 0.00 49 1011.0
20260505070003 17 44 0.0 6.4 0.00 0.00 0.00 50 1011.0
20260505064506 17 150 1.6 4.8 0.00 0.00 0.00 52 1011.0
20260505063002 17 12 0.0 1.6 0.00 0.00 0.00 54 1011.0
20260505061502 16 81 1.6 1.6 0.00 0.00 0.00 56 1011.0
20260505060002 14 16 0.0 1.6 0.00 0.00 0.00 64 1011.0
20260505054501 13 18 1.6 3.2 0.00 0.00 0.00 67 1011.0
20260505053002 12 10 1.6 3.2 0.00 0.00 0.00 72 1012.0
20260505051502 11 2 0.0 0.0 0.00 0.00 0.00 76 1012.0
20260505041502 9 2 0.0 0.0 0.00 0.00 0.00 83 1011.0
20260505040002 9 2 0.0 1.6 0.00 0.00 0.00 82 1011.0
20260505034502 10 2 0.0 0.0 0.00 0.00 0.00 82 1012.0
20260505033002 10 351 0.0 0.0 0.00 0.00 0.00 80 1012.0
20260505031501 10 350 0.0 1.6 0.00 0.00 0.00 80 1012.0
20260505030002 10 351 0.0 0.0 0.00 0.00 0.00 78 1011.0
20260505024502 11 350 0.0 0.0 0.00 0.00 0.00 74 1011.0
20260505023002 11 346 0.0 1.6 0.00 0.00 0.00 73 1012.0
20260505021503 11 351 1.6 1.6 0.00 0.00 0.00 74 1012.0
20260505020003 11 34 0.0 0.0 0.00 0.00 0.00 76 1011.0
20260505014502 11 31 1.6 1.6 0.00 0.00 0.00 73 1012.0
20260505013002 11 31 0.0 1.6 0.00 0.00 0.00 72 1012.0
20260505011502 11 31 0.0 0.0 0.00 0.00 0.00 72 1012.0
20260505010001 12 31 0.0 0.0 0.00 0.00 0.00 68 1012.0
20260505004502 12 32 1.6 3.2 0.00 0.00 0.00 64 1012.0
20260505003002 13 31 0.0 1.6 0.00 0.00 0.00 62 1012.0
20260505001502 13 48 1.6 1.6 0.00 0.00 0.00 65 1012.0
20260505000002 12 90 0.0 0.0 0.00 0.00 0.00 70 1013.0
20260504234502 12 72 1.6 1.6 0.00 0.00 0.00 74 1013.0
20260504233002 13 75 0.0 0.0 0.00 0.00 0.00 70 1013.0
20260504231502 13 105 0.0 0.0 0.00 0.00 0.00 70 1013.0
20260504230001 14 101 3.2 3.2 0.00 0.00 0.00 68 1013.0
20260504224502 15 350 0.0 1.6 0.00 0.00 0.00 67 1013.0
20260504223002 15 32 3.2 3.2 0.00 0.00 0.00 63 1013.0
20260504221503 15 354 0.0 1.6 0.00 0.00 0.00 63 1014.0
20260504220003 15 37 1.6 3.2 0.00 0.00 0.00 64 1013.0
20260504214502 15 47 0.0 1.6 0.00 0.00 0.00 63 1013.0
20260504213002 15 47 0.0 0.0 0.00 0.00 0.00 59 1013.0
20260504211502 16 48 0.0 1.6 0.00 0.00 0.00 55 1014.0
20260504210002 16 359 0.0 1.6 0.00 0.00 0.00 55 1014.0
20260504204502 16 68 0.0 1.6 0.00 0.00 0.00 53 1014.0
20260504203003 17 76 0.0 3.2 0.00 0.00 0.00 49 1014.0
20260504201502 17 22 0.0 1.6 0.00 0.00 0.00 52 1013.0
20260504200003 17 355 0.0 1.6 0.00 0.00 0.00 52 1014.0
20260504194502 17 98 0.0 0.0 0.00 0.00 0.00 50 1013.0
20260504193003 17 47 0.0 0.0 0.00 0.00 0.00 53 1013.0
20260504191502 18 74 0.0 1.6 0.00 0.00 0.00 53 1014.0
20260504190002 18 113 0.0 0.0 0.00 0.00 0.00 53 1014.0
20260504184502 19 104 0.0 0.0 0.00 0.00 0.00 52 1013.0
20260504183002 20 104 0.0 0.0 0.00 0.00 0.00 50 1013.0
20260504181502 21 117 0.0 1.6 0.00 0.00 0.00 48 1013.0
20260504180002 21 138 0.0 1.6 0.00 0.00 0.00 46 1013.0
20260504174502 22 112 0.0 1.6 0.00 0.00 0.00 45 1013.0
20260504173002 22 104 0.0 1.6 0.00 0.00 0.00 42 1013.0
20260504171502 22 63 1.6 3.2 0.00 0.00 0.00 41 1013.0